Regional Weather Roundup
Issued by NWS

Home | Current Version | Previous Version | Text Only | Print | Product List | Glossary Off
Versions: 1 2 3 4 5 6 7 8 9 10 11 12 13 14 15 16 17 18 19 20 21 22 23 24 25 26 27 28 29 30 31 32 33 34 35 36 37 38 39 40 41 42 43 44 45 46 47 48 49 50

000
ASUS45 KPSR 211510
RWRAZ

ARIZONA REGIONAL HOURLY WEATHER ROUNDUP
NATIONAL WEATHER SERVICE PHOENIX AZ
800 AM MST TUE OCT 21 2014

NOTE: FAIR INDICATES FEW OR NO CLOUDS BELOW 12,000 FEET WITH NO
SIGNIFICANT WEATHER AND/OR OBSTRUCTIONS TO VISIBILITY.

AZZ001>003-036-211600-
NORTHWEST ARIZONA

CITY           SKY/WX    TMP DP  RH WIND       PRES   REMARKS
BULLHEAD CITY  SUNNY     72  46  40 CALM      29.87R
KINGMAN        SUNNY     63  44  50 SE12      30.00R
$$

AZZ004>008-015-016-018-211600-
NORTH CENTRAL ARIZONA

CITY           SKY/WX    TMP DP  RH WIND       PRES   REMARKS
GRAND CANYON   MOSUNNY   44  34  67 CALM      30.17R
PRESCOTT       SUNNY     53  41  63 CALM      30.11R
FLAGSTAFF      SUNNY     45  40  82 CALM      30.20R
PAYSON         SUNNY     57  45  62 VRB5      30.13R
$$

AZZ009>014-017-211600-
NORTHEAST ARIZONA

CITY           SKY/WX    TMP DP  RH WIND       PRES   REMARKS
WINSLOW        SUNNY     51  43  74 SE8       30.12R
SAINT JOHNS    SUNNY     49  44  83 CALM      30.14R
SHOW LOW       SUNNY     50  39  66 S7        30.18R
$$

AZZ023-211600-
GREATER PHOENIX AREA

CITY           SKY/WX    TMP DP  RH WIND       PRES   REMARKS
PHOENIX        MOSUNNY   74  52  46 SE6       29.88R
BUCKEYE          N/A     68  48  49 NW3       29.90R
GLENDALE       MOSUNNY   70  52  52 CALM      29.91R
LUKE AFB       SUNNY     69  52  53 CALM      29.89R
DEER VALLEY    SUNNY     74  49  41 NE3       29.90R
SCOTTSDALE     SUNNY     73  51  46 CALM      29.91R
MESA-FALCON    MOSUNNY   70  48  46 N9        29.90R
MESA-GATEWAY   SUNNY     66  52  59 SE3       29.92R
CHANDLER       MOSUNNY   70  54  56 NE5       29.90R
$$

AZZ027-028-211600-
SOUTHWEST MARICOPA COUNTY AND PINAL COUNTY

CITY           SKY/WX    TMP DP  RH WIND       PRES   REMARKS
CASA GRANDE    SUNNY     70  52  52 CALM      29.91R
GILA BEND      SUNNY     68  52  56 SE1       29.88R
$$

AZZ503-504-507>509-211600-
SOUTHEAST ARIZONA

CITY           SKY/WX    TMP DP  RH WIND       PRES   REMARKS
TUCSON         SUNNY     64  50  60 SE5       29.98R
DAVIS-MONTHAN  SUNNY     66  50  56 SE10      29.97R
RYAN FIELD       N/A     66  54  63 E7        29.97R
NOGALES        SUNNY     58  32  37 MISG      30.02R
SIERRA VISTA   MOSUNNY   57  46  67 CALM      30.08R
DOUGLAS        SUNNY     54  49  83 W3        30.07R
SAFFORD        SUNNY     62  51  67 E9        30.04R
$$

AZZ020-021-025-026-031-211600-
SOUTHWEST ARIZONA

CITY           SKY/WX    TMP DP  RH WIND       PRES   REMARKS
YUMA           MOSUNNY   75  51  43 NE7       29.82R
$$

CAZ031-033-041-043-047-048-061-211600-
SOUTHERN CALIFORNIA

CITY           SKY/WX    TMP DP  RH WIND       PRES   REMARKS
DOWNTOWN L.A.  PTSUNNY   65  59  81 CALM      29.91R HAZE
L.A. AIRPORT   MOSUNNY   65  61  87 VRB3      29.92R
SAN DIEGO      PTSUNNY   69  60  73 CALM      29.91S
BURBANK        FOG       59  58  96 CALM      29.92R VSB 1/2
ONTARIO        CLOUDY    62  59  90 CALM      29.93R FOG
RIVERSIDE      CLOUDY    59  57  93 CALM      29.93R FOG
PALM SPRINGS   SUNNY     72  53  51 W6        29.85R
EL CENTRO NAS  MOSUNNY   69  48  47 W6        29.82R
IMPERIAL       SUNNY     70  53  54 W6        29.81R
BLYTHE         SUNNY     72  46  39 NW5       29.84R
NEEDLES        SUNNY     74  46  36 CALM      29.87R
$$

NVZ020-UTZ003-211600-
SOUTHERN NEVADA-UTAH

CITY           SKY/WX    TMP DP  RH WIND       PRES   REMARKS
LAS VEGAS      MOSUNNY   71  37  28 S12       29.85R
SALT LAKE CITY MOSUNNY   65  39  38 S15G25    29.89S
$$

NMZ009-TXZ055-211600-
NEW MEXICO-WEST TEXAS

CITY           SKY/WX    TMP DP  RH WIND       PRES   REMARKS
ALBUQUERQUE    PTSUNNY   53  47  79 S7        30.17R
EL PASO        PTSUNNY   61  54  77 N5        30.10R
$$


........................KEY........................
SKY/WX - SKY CONDITION/WEATHER
TMP    - TEMPERATURE IN FAHRENHEIT
DP     - DEW POINT IN FAHRENHEIT
RH     - RELATIVE HUMIDITY IN PERCENT
WIND   - DIRECTION AND SPEED IN MILES PER HOUR (MPH)
VRB    - VARIABLE WIND DIRECTION
PRES   - MEAN SEA LEVEL PRESSURE IN INCHES OF MERCURY
         F - FALLING PRESSURE   R - RISING PRESSURE
         S - STEADY PRESSURE
VSB    - VISIBILITY IN MILES
HX     - HEAT INDEX IN FAHRENHEIT
WCI    - WIND CHILL INDEX IN FAHRENHEIT
TC     - TEMPERATURE IN CELSIUS WHICH IS ALSO KNOWN AS
         TEMPERATURE IN CENTIGRADE
AFB    - AIR FORCE BASE
         LUKE AFB IS LUKE AIR FORCE BASE
         DAVIS-MONTHAN IS DAVIS-MONTHAN AIR FORCE BASE
NAS    - NAVAL AIR STATION
         EL CENTRO NAS IS EL CENTRO NAVAL AIR STATION
N/A    - NOT AVAILABLE


USA.gov is the U.S. government's official web portal to all federal, state and local government web resources and services.